Weather History for Shahre-Kord, Iran

Change the Weather History Date:

Monday, February 18, 2013

  Actual Average Record
Temperature  
Mean Temperature 37 °F -  
Max Temperature 53 °F - - ()
Min Temperature 19 °F - - ()
Degree Days  
Heating Degree Days 28    
Moisture  
Dew Point 18 °F    
Average Humidity 45    
Maximum Humidity 63    
Minimum Humidity 30    
Precipitation  
Precipitation 0.00 in - - ()
Sea Level Pressure  
Sea Level Pressure 29.97 in    
Wind  
Wind Speed 7 mph ()    
Max Wind Speed 37 mph    
Max Gust Speed -    
Visibility 6.0 miles    
Events      
T = Trace of Precipitation, MM = Missing Value Source: Averaged Metar Reports

Daily Weather History Graph

Daily Weather History Graph

Search for Another Location

Airport:

Trip Planner

Search our weather history database for the weather conditions in past years. The results will help you decide how hot, cold, wet, or windy it might be!

Date:

Astronomy

Feb. 18, 2013 Rise Set
Actual Time 6:46 AM IRST 5:55 PM IRST
Civil Twilight 6:21 AM IRST 6:20 PM IRST
Nautical Twilight 5:52 AM IRST 6:48 PM IRST
Astronomical Twilight 5:24 AM IRST 7:17 PM IRST
Moon 11:33 AM IRST (2/18) 12:56 AM IRST (2/18)
Length of Visible Light 11h 58m
Length of Day
11h 08m
First Quarter, 55% of the Moon is Illuminated
Feb 18
First Quarter
Feb 25
Full
Mar 5
Last Quarter
Mar 11
New
Mar 19
First Quarter

Hourly Weather History & Observations

Time (IRST) Temp. Windchill Dew Point Humidity Pressure Visibility Wind Dir Wind Speed Gust Speed Precip Events Conditions
12:30 AM 28.4 °F - 10.4 °F 47% 30.01 in - Calm Calm - N/A   Clear
1:30 AM 24.8 °F 16.9 °F 10.4 °F 54% 30.01 in - NE 6.9 mph - N/A   Clear
2:30 AM 26.6 °F 19.1 °F 12.2 °F 55% 29.98 in - NNW 6.9 mph - N/A   Clear
3:30 AM 24 °F - 10 °F 42% 29.89 in 6 mi NNW 6.7 mph - -   Clear
4:30 AM 26.6 °F 17.5 °F 12.2 °F 55% 29.95 in - NW 9.2 mph - N/A   Clear
5:30 AM 24.8 °F 15.3 °F 10.4 °F 54% 29.95 in - NNW 9.2 mph - N/A   Clear
6:30 AM 21.2 °F 12.6 °F 10.4 °F 63% 29.98 in - NNW 6.9 mph - N/A   Clear
7:30 AM 23.0 °F 13.1 °F 8.6 °F 54% 29.98 in - NW 9.2 mph - N/A   Clear
8:30 AM 32.0 °F - 14.0 °F 48% 30.01 in - Calm Calm - N/A   Clear
9:30 AM 40 °F - 20 °F 30% 29.96 in 6 mi Calm Calm - -   Clear
9:30 AM 41.0 °F - 19.4 °F 42% 30.01 in - Calm Calm - N/A   Clear
10:30 AM 48.2 °F - 21.2 °F 34% 29.98 in - NNW 4.6 mph - N/A   Clear
11:30 AM 51.8 °F - 26.6 °F 38% 29.98 in - South 9.2 mph - N/A   Clear
12:30 PM 51.8 °F - 26.6 °F 38% 29.98 in - SSW 23.0 mph - N/A   Clear
1:30 PM 53.6 °F - 32.0 °F 44% 29.95 in - WSW 29.9 mph - N/A   Clear
2:30 PM 53.6 °F - 33.8 °F 47% 29.92 in - SW 36.8 mph - N/A   Clear
3:30 PM 53 °F - 33 °F 35% 29.86 in 6 mi SW 20.1 mph - -  
3:30 PM 51.8 °F - 33.8 °F 50% 29.92 in - SW 20.7 mph - N/A   Clear
4:30 PM 51.8 °F - 28.4 °F 41% 29.92 in - SW 23.0 mph - N/A   Clear
5:30 PM 50.0 °F - 28.4 °F 43% 29.95 in - SW 9.2 mph - N/A   Clear
6:30 PM 41.0 °F 35.2 °F 21.2 °F 45% 29.98 in - WSW 9.2 mph - N/A   Clear
7:30 PM 33.8 °F 27.7 °F 12.2 °F 41% 29.98 in - West 6.9 mph - N/A   Clear
8:30 PM 37.4 °F 33.8 °F 14.0 °F 38% 30.01 in - WNW 4.6 mph - N/A   Clear
9:30 PM 32 °F - 13 °F 32% 29.99 in 6 mi Calm Calm - -  
9:30 PM 32.0 °F - 14.0 °F 48% 30.01 in - Calm Calm - N/A   Clear
10:30 PM 28.4 °F 23.3 °F 8.6 °F 43% 30.01 in - North 4.6 mph - N/A   Clear
11:30 PM 19.4 °F 12.8 °F 1.4 °F 46% 30.01 in - NNW 4.6 mph - N/A   Clear